Weather History for Laurinburg-Maxton, NC

Change the Weather History Date:

Thursday, June 13, 2013

  Actual Average (KLBT) Record (KLBT)
Temperature  
Mean Temperature 82 °F 78 °F  
Max Temperature 95 °F 88 °F 100 °F (2013)
Min Temperature 69 °F 67 °F 63 °F (2007)
Degree Days  
Heating Degree Days 0 0  
Month to date heating degree days 0  
Since 1 June heating degree days 0  
Since 1 July heating degree days 2761  
Cooling Degree Days 17 13  
Month to date cooling degree days 145  
Year to date cooling degree days 395  
Since 1 June cooling degree days 145  
Growing Degree Days 32 (Base 50)    
Moisture  
Dew Point 67 °F    
Average Humidity 69    
Maximum Humidity 100    
Minimum Humidity 37    
Precipitation  
Precipitation 0.16 in 0.14 in 1.58 in (2007)
Month to date precipitation 2.09  
Year to date precipitation 17.16  
Sea Level Pressure  
Sea Level Pressure 29.76 in    
Wind  
Wind Speed 9 mph (West)    
Max Wind Speed 31 mph    
Max Gust Speed 41 mph    
Visibility 9 miles    
Events Rain , Thunderstorm    
T = Trace of Precipitation, MM = Missing Value Source: NWS Daily Summary

Daily Weather History Graph

Daily Weather History Graph

Search for Another Location

Airport:

Trip Planner

Search our weather history database for the weather conditions in past years. The results will help you decide how hot, cold, wet, or windy it might be!

Date:

Astronomy

Jun. 13, 2013 Rise Set
Actual Time 6:03 AM EDT 8:31 PM EDT
Civil Twilight 5:33 AM EDT 9:01 PM EDT
Nautical Twilight 4:57 AM EDT 9:37 PM EDT
Astronomical Twilight 4:17 AM EDT 10:18 PM EDT
Moon 10:29 AM EDT (6/13) 11:47 PM EDT (6/13)
Length of Visible Light 15h 27m
Length of Day
14h 28m
Waxing Crescent, 21% of the Moon is Illuminated
Jun 13
Waxing Crescent
Jun 16
First Quarter
Jun 23
Full
Jun 30
Last Quarter
Jul 8
New

Hourly Weather History & Observations

Time (EDT) Temp. Heat Index Dew Point Humidity Pressure Visibility Wind Dir Wind Speed Gust Speed Precip Events Conditions
12:52 AM 75.9 °F - 72.0 °F 87% 29.88 in 10.0 mi WSW 4.6 mph - N/A   Clear
1:52 AM 75.0 °F - 72.0 °F 90% 29.87 in 9.0 mi WSW 4.6 mph - N/A   Clear
2:52 AM 75.0 °F - 72.0 °F 90% 29.86 in 10.0 mi SW 4.6 mph - N/A   Clear
3:52 AM 73.9 °F - 72.0 °F 93% 29.86 in 8.0 mi WSW 4.6 mph - N/A   Clear
4:52 AM 75.0 °F - 72.0 °F 90% 29.85 in 9.0 mi SW 4.6 mph - N/A   Clear
5:52 AM 73.9 °F - 72.0 °F 93% 29.84 in 8.0 mi WSW 3.5 mph - N/A   Clear
6:52 AM 75.0 °F - 72.0 °F 90% 29.83 in 7.0 mi WSW 5.8 mph - N/A   Clear
7:52 AM 79.0 °F - 73.0 °F 82% 29.81 in 9.0 mi SW 9.2 mph - N/A   Clear
8:52 AM 82.9 °F 89.4 °F 73.9 °F 74% 29.82 in 10.0 mi WSW 10.4 mph - N/A   Clear
9:52 AM 86.0 °F 92.2 °F 72.0 °F 63% 29.81 in 10.0 mi WSW 12.7 mph 18.4 mph N/A   Clear
10:52 AM 89.1 °F 97.0 °F 73.0 °F 59% 29.80 in 10.0 mi SW 12.7 mph - N/A   Clear
11:52 AM 91.0 °F 98.2 °F 72.0 °F 53% 29.78 in 10.0 mi SW 12.7 mph - N/A   Clear
12:52 PM 91.9 °F 97.4 °F 70.0 °F 48% 29.75 in 10.0 mi WSW 13.8 mph 21.9 mph N/A   Clear
1:52 PM 93.9 °F 100.3 °F 70.0 °F 46% 29.73 in 10.0 mi SW 17.3 mph 21.9 mph N/A   Clear
2:52 PM 95.0 °F 99.0 °F 66.9 °F 40% 29.70 in 10.0 mi WSW 15.0 mph 27.6 mph N/A   Clear
3:52 PM 93.9 °F 95.6 °F 64.0 °F 37% 29.68 in 10.0 mi WSW 17.3 mph 27.6 mph N/A   Clear
4:52 PM 93.9 °F 95.6 °F 64.0 °F 37% 29.66 in 10.0 mi West 16.1 mph 26.5 mph N/A   Clear
5:52 PM 93.0 °F 95.0 °F 64.9 °F 39% 29.66 in 10.0 mi West 19.6 mph 27.6 mph N/A   Clear
6:50 PM 87.8 °F 89.4 °F 64.4 °F 46% 29.72 in 9.0 mi NNW 31.1 mph 41.4 mph N/A Thunderstorm Partly Cloudy
6:52 PM 86.0 °F 85.7 °F 60.1 °F 41% 29.72 in 8.0 mi NNW 27.6 mph 41.4 mph N/A Thunderstorm Scattered Clouds
7:01 PM 82.4 °F 81.7 °F 55.4 °F 39% 29.72 in 9.0 mi NNW 21.9 mph 38.0 mph N/A Thunderstorm Mostly Cloudy
7:08 PM 80.6 °F 80.5 °F 55.4 °F 42% 29.72 in 10.0 mi NW 15.0 mph 28.8 mph N/A   Mostly Cloudy
7:24 PM 78.8 °F - 57.2 °F 47% 29.74 in 10.0 mi NW 8.1 mph - 0.00 in Rain , Thunderstorm Light Rain
7:42 PM 78.8 °F - 60.8 °F 54% 29.72 in 10.0 mi NNW 11.5 mph 18.4 mph 0.00 in   Scattered Clouds
7:52 PM 78.1 °F - 61.0 °F 56% 29.70 in 10.0 mi NW 4.6 mph - 0.00 in   Partly Cloudy
8:45 PM 75.2 °F - 64.4 °F 69% 29.68 in 10.0 mi Calm Calm - N/A Thunderstorm Mostly Cloudy
8:52 PM 75.9 °F - 64.9 °F 69% 29.68 in 10.0 mi WNW 3.5 mph - N/A Thunderstorm Mostly Cloudy
9:36 PM 69.8 °F - 68.0 °F 94% 29.71 in 2.0 mi North 9.2 mph - 0.16 in Rain , Thunderstorm Light Thunderstorms and Rain
9:44 PM 69.8 °F - 68.0 °F 94% 29.72 in 10.0 mi North 6.9 mph - 0.16 in Thunderstorm Thunderstorm
9:52 PM 70.0 °F - 68.0 °F 93% 29.71 in 10.0 mi North 5.8 mph - 0.16 in Thunderstorm Mostly Cloudy
10:01 PM 69.8 °F - 69.8 °F 100% 29.75 in 10.0 mi SW 16.1 mph - N/A Thunderstorm Thunderstorm
10:33 PM 69.8 °F - 68.0 °F 94% 29.73 in 10.0 mi North 3.5 mph - N/A   Mostly Cloudy
10:52 PM 70.0 °F - 68.0 °F 93% 29.73 in 10.0 mi Calm Calm - N/A   Partly Cloudy
11:52 PM 70.0 °F - 68.0 °F 93% 29.75 in 10.0 mi Calm Calm - N/A   Overcast